"timestamp";"minute";"mean_h";"std_h";"mean_l";"std_l"
2019-10-31T23:00:56;1;-123.03433;2.540193;-123.22137;2.4654133
2019-10-31T23:05:56;1;-123.01085;2.6924655;-123.072586;2.7962265
2019-10-31T23:10:56;1;-123.47039;2.5649617;-123.6909;2.4646752
2019-10-31T23:15:56;1;-123.24613;2.6078963;-123.326225;2.5179708
2019-10-31T23:20:56;1;-122.82286;2.6503508;-123.20444;2.6141663
2019-10-31T23:25:56;1;-123.50286;2.4580896;-123.684395;2.4461534
2019-10-31T23:30:56;1;-123.28677;2.5596974;-123.76091;2.539346
2019-10-31T23:35:56;1;-123.48623;2.5786648;-123.78573;2.5740967
2019-10-31T23:40:56;1;-123.57803;2.5451596;-123.615204;2.5312426
2019-10-31T23:45:56;1;-122.82903;2.6412783;-123.23561;2.5863216
2019-10-31T23:50:56;1;-123.537605;2.5880136;-123.676476;2.5853846
2019-10-31T23:55:56;1;-123.640915;2.5432246;-123.91429;2.5469153
2019-11-01T00:00:56;1;-123.827736;2.4754186;-124.08223;2.3719134
2019-11-01T00:05:56;1;-124.13488;2.5236213;-124.14628;2.489767
2019-11-01T00:10:56;1;-123.782326;2.589582;-123.96913;2.592163
2019-11-01T00:15:56;1;-124.14208;2.4668067;-124.20211;2.4397988
2019-11-01T00:20:56;1;-123.72391;2.7613378;-123.90595;2.7584765
2019-11-01T00:25:56;1;-123.98693;2.6212869;-124.44313;2.5529757
2019-11-01T00:30:56;1;-123.697914;2.5762212;-123.75914;2.5304468
2019-11-01T00:35:56;1;-123.01066;2.5733542;-123.124504;2.5971744
2019-11-01T00:40:56;1;-123.70489;2.5881767;-123.91167;2.5696626
2019-11-01T00:45:56;1;-123.76896;2.5247843;-124.04085;2.4384298
2019-11-01T00:50:56;1;-124.115974;2.553322;-124.48048;2.50124
2019-11-01T00:55:56;1;-124.284225;2.488848;-124.360756;2.479072
2019-11-01T01:00:56;1;-123.181;2.609496;-122.98615;2.6317117
2019-11-01T01:05:56;1;-123.46256;2.5360851;-123.80544;2.5677118
2019-11-01T01:10:56;1;-123.65375;2.5018227;-123.71263;2.5160186
2019-11-01T01:15:56;1;-124.16939;2.6059194;-124.579605;2.612956
2019-11-01T01:20:56;1;-124.13033;2.5625267;-124.31409;2.5684323
2019-11-01T01:25:56;1;-124.21123;2.6381958;-124.59004;2.5335538
2019-11-01T01:30:56;1;-123.15015;2.762071;-123.78762;2.4800472
2019-11-01T01:35:56;1;-123.977455;2.5718598;-124.17742;2.6117618
2019-11-01T01:40:56;1;-124.20089;2.5198011;-124.470146;2.5230484
2019-11-01T01:45:56;1;-124.66545;2.4605079;-124.73241;2.485683
2019-11-01T01:50:56;1;-124.49966;2.5732996;-124.713356;2.6226587
2019-11-01T01:55:56;1;-124.22898;2.6168156;-124.36352;2.5210454
2019-11-01T02:00:56;1;-123.73242;2.473664;-123.74428;2.5160978
2019-11-01T02:05:56;1;-123.634026;2.5099065;-123.60634;2.5877502
2019-11-01T02:10:56;1;-123.736435;2.5170517;-124.03585;2.5446918
2019-11-01T02:15:56;1;-123.37669;2.487402;-123.69493;2.4561994
2019-11-01T02:20:56;1;-124.37418;2.4382315;-124.48341;2.4566333
2019-11-01T02:25:56;1;-123.98933;2.5454195;-124.10393;2.5011783
2019-11-01T02:30:56;1;-124.03597;2.449279;-124.05989;2.4765742
2019-11-01T02:35:56;1;-124.28528;2.454763;-124.47039;2.4970934
2019-11-01T02:40:56;1;-124.30235;2.5761359;-124.54197;2.6066837
2019-11-01T02:45:56;1;-124.10157;2.6143858;-124.294945;2.543345
2019-11-01T02:50:56;1;-123.936584;2.5243654;-123.84076;2.5342321
2019-11-01T02:55:56;1;-123.97682;2.5436459;-124.0596;2.491052
2019-11-01T03:00:56;1;-124.169716;2.557513;-124.09508;2.4932785
2019-11-01T03:05:56;1;-124.48259;2.536265;-124.58211;2.48686
2019-11-01T03:10:56;1;-124.2008;2.5572455;-124.27165;2.5016654
2019-11-01T03:15:56;1;-123.99842;2.5153677;-124.03622;2.5479815
2019-11-01T03:20:56;1;-124.52086;2.4710743;-124.581406;2.452961
2019-11-01T03:25:56;1;-123.93812;2.640174;-123.9496;2.6677399
2019-11-01T03:30:56;1;-124.522514;2.5682073;-124.84474;2.4924572
2019-11-01T03:35:56;1;-124.56279;2.5358856;-124.60335;2.4124424
2019-11-01T03:40:56;1;-124.521515;2.487459;-124.56403;2.4528673
2019-11-01T03:45:56;1;-124.4253;2.493926;-124.44939;2.5149548
2019-11-01T03:50:56;1;-123.83877;2.5177596;-123.969505;2.5468662
2019-11-01T03:55:56;1;-124.156006;2.502012;-124.315895;2.4652
2019-11-01T04:00:56;1;-123.99967;2.5473838;-123.905464;2.6583254
2019-11-01T04:05:56;1;-123.03748;2.7199023;-122.48068;2.817989
2019-11-01T04:10:56;1;-124.47795;2.4849384;-124.32189;2.541219
2019-11-01T04:15:56;1;-121.20988;3.8137307;-124.450935;2.3863826
2019-11-01T04:20:56;1;-123.99718;2.5681145;-124.17209;2.6047935
2019-11-01T04:25:56;1;-123.1721;2.6795714;-123.00503;2.8609626
2019-11-01T04:30:56;1;-124.30074;2.5076823;-124.39793;2.5116153
2019-11-01T04:35:56;1;-123.815094;2.4506233;-123.695656;2.3749456
2019-11-01T04:40:56;1;-123.92603;2.6460564;-123.67515;2.6173089
2019-11-01T04:45:56;1;-122.038506;2.8444529;-121.61442;2.8187246
2019-11-01T04:50:56;1;-124.098274;2.5542502;-124.20733;2.688636
2019-11-01T04:55:56;1;-124.41114;2.4736943;-124.37986;2.4247975
2019-11-01T05:00:56;1;-123.81324;2.515922;-124.121735;2.4653287
2019-11-01T05:05:56;1;-124.278755;2.5258634;-124.33783;2.5216358
2019-11-01T05:10:56;1;-124.355576;2.5020423;-124.641815;2.4623282
2019-11-01T05:15:56;1;-123.61054;2.6272352;-123.36945;2.707332
2019-11-01T05:20:56;1;-124.11724;2.6243994;-124.01511;2.6642568
2019-11-01T05:25:56;1;-123.63621;2.561365;-123.566826;2.6748242
2019-11-01T05:30:56;1;-123.937485;2.5436473;-123.791824;2.597244
2019-11-01T05:35:56;1;-124.16716;2.6032407;-123.981606;2.6343162
2019-11-01T05:40:56;1;-123.823814;2.5159006;-124.01593;2.4953709
2019-11-01T05:45:56;1;-123.76812;2.4745483;-123.781845;2.5014136
2019-11-01T05:50:56;1;-123.98702;2.4799485;-123.971275;2.3999095
2019-11-01T05:55:56;1;-124.18857;2.6814623;-124.44873;2.60417
2019-11-01T06:00:56;1;-121.949974;3.2976913;-123.939354;2.4867694
2019-11-01T06:05:56;1;-121.67374;3.5354016;-123.959;2.6827133
2019-11-01T06:10:56;1;-120.672165;4.0217834;-124.22947;2.4575324
2019-11-01T06:15:56;1;-121.19698;3.6150277;-123.307945;2.8329682
2019-11-01T06:20:56;1;-119.877686;4.5159383;-124.31041;2.536733
2019-11-01T06:25:56;1;-120.92508;4.1881123;-124.775856;2.458302
2019-11-01T06:30:56;1;-116.99946;5.8491373;-124.68827;2.4379613
2019-11-01T06:35:56;1;-116.745415;5.8795424;-124.44908;2.4947217
2019-11-01T06:40:56;1;-96.68656;15.178556;-124.109535;2.6491816
2019-11-01T06:45:56;1;-96.82953;15.911478;-124.90019;2.4267817
2019-11-01T06:50:56;1;-94.940834;16.665833;-124.499466;2.4131837
2019-11-01T06:55:56;1;-92.08139;17.943762;-124.457275;2.5446098
2019-11-01T07:00:56;1;-94.3558;16.100721;-122.89293;2.7290778
2019-11-01T07:05:56;1;-93.93976;16.842289;-123.92063;2.4502
2019-11-01T07:10:56;1;-92.99434;17.254625;-123.78214;2.560792
2019-11-01T07:15:56;1;-97.90966;15.211082;-124.71508;2.3810954
2019-11-01T07:20:56;1;-93.59611;16.990995;-123.995735;2.5603762
2019-11-01T07:25:56;1;-95.428;15.988212;-124.19371;2.457301
2019-11-01T07:30:56;1;-91.83703;17.529148;-124.076836;2.4407709
2019-11-01T07:35:56;1;-91.58055;17.571283;-123.576614;2.5498774
2019-11-01T07:40:56;1;-92.89099;17.394537;-125.45187;2.4289014
2019-11-01T07:45:56;1;-90.96736;18.608603;-125.63712;2.4521315
2019-11-01T07:50:56;1;-94.558876;16.935894;-125.360596;2.2696552
2019-11-01T07:55:56;1;-95.21907;16.397974;-125.09447;2.6014311
2019-11-01T08:00:56;1;-91.78548;17.991425;-124.87031;2.5718915
2019-11-01T08:05:56;1;-93.49387;17.023825;-124.57256;2.4703496
2019-11-01T08:10:56;1;-96.9663;15.76877;-125.24216;2.5397332
2019-11-01T08:15:56;1;-96.847115;14.995126;-123.83996;2.3830578
2019-11-01T08:20:56;1;-93.9667;16.22234;-123.62009;2.472462
2019-11-01T08:25:56;1;-94.46103;16.348011;-124.349976;2.4562888
2019-11-01T08:30:56;1;-92.4241;18.055365;-124.816025;2.56025
2019-11-01T08:35:56;1;-93.828384;16.643007;-123.93227;2.5818462
2019-11-01T08:40:56;1;-98.10801;14.506079;-124.292;2.496418
2019-11-01T08:45:56;1;-98.435715;14.754475;-125.067696;2.442974
2019-11-01T08:50:56;1;-96.50776;15.697209;-124.71437;2.547601
2019-11-01T08:55:56;1;-94.64635;15.825186;-124.4741;2.5286994
2019-11-01T09:00:56;1;-97.97925;14.413786;-124.2707;2.5859597
2019-11-01T09:05:56;1;-94.18715;16.265472;-124.51651;2.400062
2019-11-01T09:10:56;1;-98.10213;14.401855;-124.345436;2.571315
2019-11-01T09:15:56;1;-93.73055;17.189552;-125.33009;2.4895427
2019-11-01T09:20:56;1;-97.184044;14.960075;-124.38022;2.528345
2019-11-01T09:25:56;1;-96.73459;15.562982;-125.238075;2.553331
2019-11-01T09:30:56;1;-97.71261;14.955851;-124.759735;2.6271405
2019-11-01T09:35:56;1;-99.03699;14.558973;-125.61885;2.6191792
2019-11-01T09:40:56;1;-99.080505;14.517679;-125.34369;2.4759927
2019-11-01T09:45:56;1;-99.63796;14.169555;-125.63046;2.2924047
2019-11-01T09:50:56;1;-98.20478;14.970936;-125.5828;2.6084619
2019-11-01T09:55:56;1;-99.53018;14.026562;-125.55253;2.507373
2019-11-01T10:00:56;1;-100.63001;13.9632225;-125.94576;2.4377475
2019-11-01T10:05:56;1;-96.218575;16.041376;-125.82043;2.4424915
2019-11-01T10:10:56;1;-97.071495;15.500314;-125.15072;2.5419304
2019-11-01T10:15:56;1;-97.58508;15.120167;-124.73328;2.535266
2019-11-01T10:20:56;1;-103.496025;12.464538;-125.3721;2.4699888
2019-11-01T10:25:56;1;-100.20334;13.820768;-124.748085;2.5188901
2019-11-01T10:30:56;1;-99.48953;14.218178;-125.0636;2.4430735
2019-11-01T10:35:56;1;-101.53822;13.320229;-125.44905;2.3947628
2019-11-01T10:40:56;1;-97.728386;15.328327;-125.33624;2.5271895
2019-11-01T10:45:56;1;-98.26656;14.850411;-125.58219;2.5645227
2019-11-01T10:50:56;1;-98.88622;14.778266;-125.9425;2.3989944
2019-11-01T10:55:56;1;-99.351166;14.714301;-125.93011;2.5007572
2019-11-01T11:00:56;1;-95.05421;16.41543;-125.55754;2.475248
2019-11-01T11:05:56;1;-96.12192;15.417174;-125.407616;2.4748585
2019-11-01T11:10:56;1;-102.50493;12.98935;-125.4373;2.5714605
2019-11-01T11:15:56;1;-101.47582;13.589975;-125.78534;2.389564
2019-11-01T11:20:56;1;-93.001495;17.290709;-125.513725;2.6070344
2019-11-01T11:25:56;1;-98.22433;15.255797;-125.78319;2.5503445
2019-11-01T11:30:56;1;-99.90343;14.312804;-125.92046;2.5465477
2019-11-01T11:35:56;1;-94.27901;16.91877;-125.51368;2.5731463
2019-11-01T11:40:56;1;-100.103485;14.668399;-125.82468;2.555494
2019-11-01T11:45:56;1;-101.002205;13.994214;-125.97653;2.4790406
2019-11-01T11:50:56;1;-97.14094;15.521153;-125.90806;2.4886918
2019-11-01T11:55:56;1;-95.61491;16.486065;-125.764565;2.4831305
2019-11-01T12:00:56;1;-101.14216;13.707091;-126.19215;2.5034132
2019-11-01T12:05:56;1;-92.31882;18.077312;-125.83295;2.4997263
2019-11-01T12:10:56;1;-98.761154;14.733763;-125.66758;2.4937248
2019-11-01T12:15:56;1;-98.491234;14.885772;-125.44937;2.5078728
2019-11-01T12:20:56;1;-98.7414;15.013534;-125.74431;2.5269003
2019-11-01T12:25:56;1;-100.58372;14.08176;-126.04581;2.5468662
2019-11-01T12:30:56;1;-99.29451;14.772558;-125.68807;2.4793026
2019-11-01T12:35:56;1;-98.3315;14.688865;-125.16491;2.5978749
2019-11-01T12:40:56;1;-93.43724;17.345097;-124.89899;2.5568411
2019-11-01T12:45:56;1;-97.66456;15.047534;-125.04223;2.5129554
2019-11-01T12:50:56;1;-96.093994;16.11301;-125.59636;2.3211656
2019-11-01T12:55:56;1;-95.212296;16.771088;-125.6109;2.4876966
2019-11-01T13:00:56;1;-98.23588;15.056284;-125.44512;2.5109441
2019-11-01T13:05:56;1;-96.49752;16.171867;-125.91047;2.4578223
2019-11-01T13:10:56;1;-91.86031;17.769974;-125.206894;2.4274068
2019-11-01T13:15:56;1;-96.58468;15.770669;-125.410065;2.5233777
2019-11-01T13:20:56;1;-92.67563;17.618275;-124.46708;2.6276364
2019-11-01T13:25:56;1;-94.24849;16.546646;-124.05686;2.535774
2019-11-01T13:30:56;1;-95.02457;16.178576;-124.64124;2.4029543
2019-11-01T13:35:56;1;-94.574135;16.992231;-125.266335;2.547741
2019-11-01T13:40:56;1;-97.184044;15.462569;-125.242165;2.4987721
2019-11-01T13:45:56;1;-91.57151;18.332851;-125.370346;2.5206242
2019-11-01T13:50:56;1;-98.782906;14.63259;-125.287636;2.5323198
2019-11-01T13:55:56;1;-96.99067;15.824691;-125.7875;2.5067515
2019-11-01T14:00:56;1;-93.53498;16.077753;-125.016335;2.5314515
2019-11-01T14:05:56;1;-94.73689;16.428318;-124.68142;2.4130626
2019-11-01T14:10:56;1;-94.392426;16.50487;-125.03034;2.5921931
2019-11-01T14:15:56;1;-94.36767;17.072624;-125.59876;2.514608
2019-11-01T14:20:56;1;-99.833824;14.117287;-125.33833;2.4347064
2019-11-01T14:25:56;1;-95.44449;16.216608;-125.50145;2.481751
2019-11-01T14:30:56;1;-93.754364;16.76857;-125.34046;2.5574098
2019-11-01T14:35:56;1;-96.19971;16.108551;-125.7702;2.494835
2019-11-01T14:40:56;1;-91.092674;18.311995;-125.74715;2.5824358
2019-11-01T14:45:56;1;-94.78956;16.735542;-125.74246;2.4242973
2019-11-01T14:50:56;1;-92.08828;18.129538;-125.67003;2.5748954
2019-11-01T14:55:56;1;-97.283356;15.512126;-125.65177;2.472969
2019-11-01T15:00:56;1;-95.35113;16.442638;-125.604034;2.530182
2019-11-01T15:05:56;1;-94.46574;16.876228;-125.68635;2.5202928
2019-11-01T15:10:56;1;-98.99455;14.494879;-125.22674;2.6353173
2019-11-01T15:15:56;1;-90.30298;18.928291;-125.57469;2.475057
2019-11-01T15:20:56;1;-95.47272;16.037222;-125.084274;2.5724177
2019-11-01T15:25:56;1;-91.89156;18.06339;-125.43852;2.4282663
2019-11-01T15:30:56;1;-93.77606;17.052744;-125.0915;2.5763042
2019-11-01T15:35:56;1;-90.43068;18.922613;-125.573044;2.5728366
2019-11-01T15:40:56;1;-97.19598;15.519522;-125.399124;2.4698918
2019-11-01T15:45:56;1;-89.34988;19.526917;-125.47074;2.407871
2019-11-01T15:50:56;1;-93.54232;17.456717;-125.413864;2.4601324
2019-11-01T15:55:56;1;-95.08368;16.927114;-125.63113;2.515154
2019-11-01T16:00:56;1;-99.2255;14.510923;-126.29598;2.6198225
2019-11-01T16:05:56;1;-96.60305;16.158325;-125.90733;2.466206
2019-11-01T16:10:56;1;-94.24945;17.984583;-126.410995;2.5689912
2019-11-01T16:15:56;1;-123.090904;3.7728293;-126.07998;2.5467968
2019-11-01T16:20:56;1;-123.95369;2.8879197;-123.9333;2.9535356
2019-11-01T16:25:56;1;-125.58927;2.5989287;-126.02128;2.531257
2019-11-01T16:30:56;1;-125.56795;2.529841;-125.26361;2.6394305
2019-11-01T16:35:56;1;-125.8091;2.5627377;-125.86699;2.5155375
2019-11-01T16:40:56;1;-125.233154;2.4918458;-124.771355;2.4984782
2019-11-01T16:45:56;1;-124.08797;2.7194433;-125.20403;2.4369614
2019-11-01T16:50:56;1;-124.6735;2.519543;-124.59549;2.4625463
2019-11-01T16:55:56;1;-124.809;2.4755647;-124.87083;2.443462
2019-11-01T17:00:56;1;-124.864204;2.5467978;-125.044556;2.523849
2019-11-01T17:05:56;1;-124.997246;2.5384433;-124.83071;2.6046896
2019-11-01T17:10:56;1;-123.728745;2.6339452;-123.701416;2.7096148
2019-11-01T17:15:56;1;-124.981606;2.5080135;-124.86456;2.5277226
2019-11-01T17:20:56;1;-122.93435;2.9015112;-122.585335;2.8866935
2019-11-01T17:25:56;1;-124.777084;2.4824781;-124.63783;2.54749
2019-11-01T17:30:56;1;-124.84767;2.6881397;-124.39491;2.7376657
2019-11-01T17:35:56;1;-124.64084;2.4995139;-124.92011;2.5342398
2019-11-01T17:40:56;1;-125.48481;2.537883;-125.53198;2.5307739
2019-11-01T17:45:56;1;-125.03694;2.5686243;-124.838264;2.6364653
2019-11-01T17:50:56;1;-121.20536;2.7907317;-119.9336;2.9406123
2019-11-01T17:55:56;1;-123.799194;2.4837418;-123.64936;2.5051699
2019-11-01T18:00:56;1;-123.78829;2.488341;-123.90447;2.5684874
2019-11-01T18:05:56;1;-123.7803;2.594926;-123.96121;2.5663416
2019-11-01T18:10:56;1;-123.380226;2.6012695;-123.28764;2.6529264
2019-11-01T18:15:56;1;-123.32026;2.524716;-123.17938;2.5907502
2019-11-01T18:20:56;1;-122.41258;2.8413825;-123.46894;2.564629
2019-11-01T18:25:56;1;-123.90494;2.5841804;-124.31405;2.528125
2019-11-01T18:30:56;1;-123.49518;2.5351174;-123.54047;2.4759185
2019-11-01T18:35:56;1;-123.49274;2.6530917;-123.29984;2.6352232
2019-11-01T18:40:56;1;-123.51978;2.7438407;-124.41415;2.54118
2019-11-01T18:45:56;1;-116.670685;5.598309;-123.59735;2.5940924
2019-11-01T18:50:56;1;-114.53404;6.333944;-123.23823;2.4864972
2019-11-01T18:55:56;1;-119.49298;3.8872519;-122.644005;2.5555983
2019-11-01T19:00:56;1;-123.12385;2.7515955;-123.98894;2.5087404
2019-11-01T19:05:56;1;-123.4931;2.6091764;-124.01414;2.4802828
2019-11-01T19:10:56;1;-124.20757;2.5063622;-124.14909;2.5762365
2019-11-01T19:15:56;1;-123.208496;2.748381;-122.80497;2.9548013
2019-11-01T19:20:56;1;-124.01442;2.5207336;-124.17372;2.4591124
2019-11-01T19:25:56;1;-124.20438;2.4085605;-124.16199;2.3016398
2019-11-01T19:30:56;1;-123.483475;2.5092647;-123.67173;2.3992171
2019-11-01T19:35:56;1;-122.41553;2.7260218;-121.315765;2.8694463
2019-11-01T19:40:56;1;-122.447716;2.6289077;-122.862976;2.5254397
2019-11-01T19:45:56;1;-123.301834;2.5192177;-123.46574;2.4993877
2019-11-01T19:50:56;1;-123.68025;2.484423;-123.86744;2.5079389
2019-11-01T19:55:56;1;-124.03304;2.4846997;-124.347404;2.520254
2019-11-01T20:00:56;1;-123.99898;2.590521;-123.82915;2.593616
2019-11-01T20:05:56;1;-123.410774;2.5160108;-123.40206;2.5437078
2019-11-01T20:10:56;1;-123.60415;2.448688;-123.622154;2.34838
2019-11-01T20:15:56;1;-122.13979;2.832304;-122.408394;2.7882564
2019-11-01T20:20:56;1;-123.196106;2.5813832;-123.59696;2.4751856
2019-11-01T20:25:56;1;-123.414604;2.5335248;-123.33734;2.5712435
2019-11-01T20:30:56;1;-123.15108;2.5139549;-122.93309;2.4811006
2019-11-01T20:35:56;1;-123.12077;2.5705159;-122.85766;2.6081662
2019-11-01T20:40:56;1;-123.17946;2.4927413;-123.44849;2.5057695
2019-11-01T20:45:56;1;-123.46521;2.470113;-123.55135;2.567626
2019-11-01T20:50:56;1;-122.531815;2.4531333;-122.31796;2.4750001
2019-11-01T20:55:56;1;-123.15298;2.5074158;-122.878105;2.3979673
2019-11-01T21:00:56;1;-122.07035;2.455476;-121.909584;2.5845761
2019-11-01T21:05:56;1;-122.88621;2.4632595;-122.887436;2.4734292
2019-11-01T21:10:56;1;-122.75414;2.7436926;-122.21635;2.6096435
2019-11-01T21:15:56;1;-122.464264;2.6998606;-121.88408;2.6826146
2019-11-01T21:20:56;1;-122.38753;2.5153842;-122.31264;2.536001
2019-11-01T21:25:56;1;-123.74507;2.5355854;-123.55538;2.5166986
2019-11-01T21:30:56;1;-124.10206;2.518156;-124.00823;2.6115725
2019-11-01T21:35:56;1;-122.90161;2.5502946;-122.40708;2.513237
2019-11-01T21:40:56;1;-122.63466;2.5595348;-122.89974;2.45363
2019-11-01T21:45:56;1;-124.285995;2.5610886;-124.2478;2.571988
2019-11-01T21:50:56;1;-123.67698;2.5841203;-123.870415;2.6020665
2019-11-01T21:55:56;1;-121.21895;2.9136405;-119.51289;3.1561477
2019-11-01T22:00:56;1;-122.53791;2.431856;-122.56358;2.4642231
2019-11-01T22:05:56;1;-121.66258;2.4827943;-121.83082;2.5648727
2019-11-01T22:10:56;1;-123.47288;2.5235353;-123.5787;2.4685416
2019-11-01T22:15:56;1;-122.61603;2.725295;-122.09847;2.789494
2019-11-01T22:20:56;1;-122.95119;2.552261;-122.805016;2.4984865
2019-11-01T22:25:56;1;-123.37915;2.4890373;-123.33024;2.5132966
2019-11-01T22:30:56;1;-123.09826;2.515369;-122.908714;2.563245
2019-11-01T22:35:56;1;-123.80676;2.447745;-123.73205;2.4287221
2019-11-01T22:40:56;1;-123.82349;2.5335467;-123.873726;2.5718164
2019-11-01T22:45:56;1;-124.24567;2.5527897;-124.30112;2.4627352
2019-11-01T22:50:56;1;-124.3291;2.4955418;-124.18232;2.4906602
2019-11-01T22:55:56;1;-124.14362;2.4355042;-124.08271;2.5125992
2019-11-01T23:00:56;1;-124.00893;2.555363;-123.98722;2.5436587
2019-11-01T23:05:56;1;-123.97884;2.6250393;-124.348335;2.6026118
2019-11-01T23:10:56;1;-125.0958;2.5310204;-125.50235;2.366335
2019-11-01T23:15:56;1;-124.40615;2.6408665;-124.92636;2.5136971
2019-11-01T23:20:56;1;-124.14157;2.638827;-123.65114;2.5591989
2019-11-01T23:25:56;1;-124.47817;2.668691;-125.20784;2.556536
2019-11-01T23:30:56;1;-123.95695;2.5134213;-123.76192;2.4903464
2019-11-01T23:35:56;1;-124.55347;2.5786994;-124.56198;2.6290212
2019-11-01T23:40:56;1;-124.10697;2.479439;-123.98737;2.515483
2019-11-01T23:45:56;1;-124.40029;2.4524157;-124.42164;2.5588205
2019-11-01T23:50:56;1;-124.65713;2.5839984;-124.900154;2.535957
2019-11-01T23:55:56;1;-124.76554;2.3973863;-124.68914;2.3459458
2019-11-02T00:00:56;1;-124.55569;2.574095;-124.31448;2.5788317
2019-11-02T00:05:56;1;-124.54045;2.5344324;-124.62977;2.553313
2019-11-02T00:10:56;1;-124.371765;2.547674;-124.4523;2.4829972
2019-11-02T00:15:56;1;-124.951195;2.4516525;-124.995384;2.5208507
2019-11-02T00:20:56;1;-124.01611;2.952057;-125.111916;2.5155873
2019-11-02T00:25:56;1;-125.03437;2.6255903;-125.19695;2.5255423
2019-11-02T00:30:56;1;-125.16183;2.4626768;-125.26873;2.360371
2019-11-02T00:35:56;1;-125.04424;2.5461419;-125.172775;2.5638747
2019-11-02T00:40:56;1;-124.9393;2.4437315;-124.82454;2.4106848
2019-11-02T00:45:56;1;-125.461716;2.5459065;-125.43422;2.5762138
2019-11-02T00:50:56;1;-125.60618;2.4991148;-125.49672;2.5593119
2019-11-02T00:55:56;1;-125.405525;2.5201917;-125.696846;2.5777454
2019-11-02T01:00:56;1;-125.94707;2.5397546;-125.96719;2.5492609
2019-11-02T01:05:56;1;-125.43244;2.528989;-125.63317;2.477745
2019-11-02T01:10:56;1;-124.71023;2.5763807;-124.39886;2.6374006
2019-11-02T01:15:56;1;-124.77356;2.5385919;-124.87005;2.5201843
2019-11-02T01:20:56;1;-125.21988;2.5356493;-125.43354;2.5859833
2019-11-02T01:25:56;1;-124.84981;2.490535;-124.96656;2.5192878
2019-11-02T01:30:56;1;-124.99689;2.5183523;-125.02183;2.5491712
2019-11-02T01:35:56;1;-125.19075;2.5615528;-125.252106;2.5549715
2019-11-02T01:40:56;1;-124.31309;2.5424638;-123.83268;2.5689468
2019-11-02T01:45:56;1;-125.223946;2.5476487;-125.270805;2.5293732
2019-11-02T01:50:56;1;-124.84288;2.5897439;-125.194;2.467904
2019-11-02T01:55:56;1;-125.22234;2.4582927;-125.46497;2.4034777
2019-11-02T02:00:56;1;-124.9371;2.5960376;-124.87121;2.590466
2019-11-02T02:05:56;1;-125.37;2.544256;-125.64893;2.5725186
2019-11-02T02:10:56;1;-125.15347;2.5683875;-125.39485;2.5189095
2019-11-02T02:15:56;1;-124.48594;2.5720034;-124.44932;2.6436346
2019-11-02T02:20:56;1;-124.71228;2.5094821;-125.06518;2.357186
2019-11-02T02:25:56;1;-124.915855;2.5775301;-125.32147;2.416379
2019-11-02T02:30:56;1;-125.6926;2.485483;-125.74173;2.4926925
2019-11-02T02:35:56;1;-125.442924;2.6261146;-125.57324;2.6045313
2019-11-02T02:40:56;1;-125.565674;2.5811648;-125.78205;2.5739155
2019-11-02T02:45:56;1;-125.15081;2.5286682;-124.98091;2.4718952
2019-11-02T02:50:56;1;-125.413536;2.6098707;-125.73246;2.5748332
2019-11-02T02:55:56;1;-125.484634;2.5923178;-125.46635;2.522279
2019-11-02T03:00:56;1;-125.52897;2.5469882;-125.606865;2.571836
2019-11-02T03:05:56;1;-125.316696;2.5788085;-125.45719;2.5894804
2019-11-02T03:10:56;1;-125.50033;2.603906;-125.2614;2.6029947
2019-11-02T03:15:56;1;-123.626945;2.5866938;-123.37173;2.608609
2019-11-02T03:20:56;1;-125.09797;2.588629;-124.99987;2.611532
2019-11-02T03:25:56;1;-124.41216;2.6887255;-124.56091;2.6104383
2019-11-02T03:30:56;1;-125.07389;2.4945648;-125.09407;2.4637856
2019-11-02T03:35:56;1;-125.17496;2.4877472;-125.08017;2.5694926
2019-11-02T03:40:56;1;-125.000694;2.4869041;-125.04172;2.4963138
2019-11-02T03:45:56;1;-125.10294;2.4229202;-125.179565;2.4731412
2019-11-02T03:50:56;1;-124.61703;2.4916918;-124.505806;2.5105736
2019-11-02T03:55:56;1;-124.43143;2.6229303;-124.090164;2.6329637
2019-11-02T04:00:56;1;-124.23543;2.5241752;-124.223305;2.4728339
2019-11-02T04:05:56;1;-124.535736;2.500299;-124.39604;2.533696
2019-11-02T04:10:56;1;-124.19909;2.5998788;-124.2567;2.5595272
2019-11-02T04:15:56;1;-124.43853;2.5571353;-124.454155;2.5888178
2019-11-02T04:20:56;1;-123.159515;3.0327382;-122.3906;3.2998583
2019-11-02T04:25:56;1;-125.31624;2.5961623;-125.38163;2.5189564
2019-11-02T04:30:56;1;-125.08898;2.67158;-125.099106;2.6111357
2019-11-02T04:35:56;1;-123.5286;3.018154;-124.42071;2.775541
2019-11-02T04:40:56;1;-125.00969;2.5513124;-125.127594;2.526724
2019-11-02T04:45:56;1;-123.64714;2.5141504;-123.45135;2.4862175
2019-11-02T04:50:56;1;-123.62708;2.596995;-124.09683;2.468932
2019-11-02T04:55:56;1;-123.66442;2.586636;-123.4347;2.6443264
2019-11-02T05:00:56;1;-123.75021;2.521691;-123.895454;2.427871
2019-11-02T05:05:56;1;-123.392204;2.692693;-123.54208;2.62246
2019-11-02T05:10:56;1;-124.33138;2.497246;-124.22906;2.456855
2019-11-02T05:15:56;1;-124.56487;2.7013772;-124.810394;2.7070415
2019-11-02T05:20:56;1;-123.781876;3.0212917;-123.5537;3.0830138
2019-11-02T05:25:56;1;-125.235916;2.5551083;-125.14653;2.6612828
2019-11-02T05:30:56;1;-125.09971;2.5289247;-124.848854;2.5555248
2019-11-02T05:35:56;1;-125.15701;2.5943298;-125.22064;2.6679068
2019-11-02T05:40:56;1;-123.47508;2.9211066;-124.53559;2.5262725
2019-11-02T05:45:56;1;-124.33672;2.5275226;-124.357574;2.4813662
2019-11-02T05:50:56;1;-124.44717;2.4991636;-124.47574;2.5372896
2019-11-02T05:55:56;1;-124.90276;2.4192903;-124.88116;2.4266534
2019-11-02T06:00:56;1;-122.80735;3.2136624;-122.01531;3.6511955
2019-11-02T06:05:56;1;-122.90691;3.0636513;-124.05213;2.6119301
2019-11-02T06:10:56;1;-122.072784;3.666037;-124.57286;2.5801077
2019-11-02T06:15:56;1;-120.006294;4.471737;-124.19986;2.6246328